Location: Malvern Link
(52.1333°N, 2.3000°W)
Time: 16:39:14
(UTC+00:00)

SPROUT - Pass Details

Date: 01 July 2022
Orbit: 588 x 598 km, 97.9° (Epoch: 09 August)

Event Time Altitude Azimuth Distance (km) Brightness Sun altitude
Exits shadow 22:54:19 - 102° (ESE) 2,737 ? -12.9°
Reaches altitude 10° 22:57:50 10° 68° (ENE) 1,925 ? -13.0°
Maximum altitude 22:58:56 11° 52° (NE) 1,867 ? -13.1°
Drops below altitude 10° 23:00:01 10° 37° (NE) 1,929 ? -13.1°
Sets 23:03:49 0° 1° (N) 2,839 ? -13.3°
